[[{"header":{"parameterUnit":"m.s-1","parameterCategory":1,"la1":30.2991,"la2":30.254,"lo1":-89.0895,"lo2":-89.0444,"dy":0.0017,"dx":0.0017,"nx":28,"ny":28,"refTime":"2025-09-17T09:00:00:Z","depth":0,"parameterNumber":2,"parameterNumberName":"U-component_of_WINDS"},"data":[0,0,0,0,0,0,0,0,0,0,0,0,0,0,0,0,0,0,0,0,0,0,0,0,0,0,0,0,0,0,0,0,0,0,0,0,0,0,0,0,0,0,0,0,0,0,0,0,0,0,0,0,0,0,0,0,0,0,-0.7445,-0.7446,0,-0.7528,-0.7529,-0.753,-0.7505,-0.7504,-0.7502,-0.75,-0.7588,-0.7591,-0.7595,0,0,0,0,0,0,0,0,0,0,0,0,0,-0.7269,-0.7272,-0.7445,-0.7446,-0.7447,-0.7528,-0.7529,-0.753,-0.7506,-0.7504,-0.7502,-0.75,-0.7586,-0.7591,-0.7596,0,0,0,0,0,0,0,0,0,0,0,0,0,-0.7348,-0.7273,-0.7445,-0.7445,-0.7446,-0.7528,-0.7529,-0.753,-0.7506,-0.7504,-0.7501,-0.7499,-0.7585,-0.7591,-0.7596,-0.7684,0,0,-0.7614,-0.7617,0,0,0,0,0,0,0,0,-0.7343,-0.7354,-0.7444,-0.7445,-0.7446,-0.7504,-0.7499,-0.7582,-0.7507,-0.7483,-0.75,-0.7497,-0.7562,-0.757,-0.7591,-0.7688,-0.7692,-0.7615,-0.7618,-0.7621,-0.7623,0,0,0,0,0,0,0,-0.7338,-0.7351,-0.7478,-0.7445,-0.7447,-0.7441,-0.745,-0.7514,-0.7536,-0.7485,-0.7484,-0.7494,-0.7562,-0.7585,-0.7593,-0.7694,-0.7615,-0.762,-0.7624,-0.7626,-0.7868,-0.7871,0,0,0,0,0,0,-0.7331,-0.7346,-0.7476,-0.7481,-0.7387,-0.7447,-0.7456,-0.7488,-0.7535,-0.754,-0.7496,-0.7492,-0.7576,-0.7586,-0.7596,-0.7702,-0.7621,-0.7626,-0.763,-0.7865,-0.7869,-0.7872,0,0,0,0,0,0,-0.7328,-0.7343,-0.7472,-0.7413,-0.7429,-0.7452,-0.7488,-0.7491,-0.7514,-0.7543,-0.7547,-0.7515,-0.7575,-0.7587,-0.7662,-0.7705,-0.7629,-0.7634,-0.7862,-0.7866,-0.787,-0.7916,0,0,0,0,0,0,-0.7323,-0.7342,-0.7375,-0.7414,-0.7432,-0.7537,-0.7491,-0.7494,-0.7524,-0.752,-0.7563,-0.7567,-0.7574,-0.7654,-0.7668,-0.7712,-0.7639,-0.7858,-0.7864,-0.7869,-0.7911,-0.7921,-0.7931,0,0,0,0,0,-0.7317,-0.7385,-0.7377,-0.7393,-0.7474,-0.7539,-0.755,-0.7555,-0.7527,-0.7561,-0.758,-0.7566,-0.7698,-0.7662,-0.7678,-0.7724,-0.7855,-0.7862,-0.7869,-0.7907,-0.7919,-0.793,0,0,0,0,0,0,-0.7352,-0.739,-0.7382,-0.7465,-0.7499,-0.7535,-0.7578,-0.7569,-0.7612,-0.7607,-0.7612,-0.7622,-0.7699,-0.7719,-0.7678,-0.7812,-0.7773,-0.7783,-0.7796,-0.7809,-0.7818,-0.7812,-0.7644,0,0,0,0,0,-0.7369,-0.7418,-0.7449,-0.752,-0.7537,-0.7555,-0.7584,-0.7584,-0.762,-0.7635,-0.7659,-0.7696,-0.7745,-0.7778,-0.7825,-0.7913,-0.7923,-0.7953,-0.7963,-0.7971,-0.798,-0.8028,-0.8042,-0.7893,-0.7893,-0.7893,0,0,-0.7406,-0.7433,-0.7464,-0.7528,-0.7554,-0.7606,-0.7567,-0.7623,-0.7662,-0.7644,-0.7716,-0.7735,-0.7776,-0.7858,-0.7896,-0.7877,-0.8023,-0.7979,-0.7985,-0.799,-0.8036,-0.8051,-0.8063,-0.7898,-0.7897,-0.7896,0,0,-0.7499,-0.7524,-0.7585,-0.7613,-0.7653,-0.7664,-0.7679,-0.7717,-0.7728,-0.7801,-0.7789,-0.7835,-0.792,-0.795,-0.7976,-0.808,-0.8069,-0.8095,-0.8147,-0.8194,-0.8206,-0.8216,-0.8254,-0.8268,-0.8104,-0.8104,-0.8104,0,-0.7539,-0.7615,-0.7618,-0.7675,-0.7704,-0.7689,-0.7752,-0.7779,-0.7833,-0.7854,-0.7832,-0.7938,-0.7965,-0.8054,-0.8079,-0.8101,-0.8118,-0.8091,-0.8204,-0.8214,-0.8224,-0.826,-0.8274,-0.8107,-0.8106,-0.8106,-0.8106,0,-0.7664,-0.7717,-0.7762,-0.7814,-0.7847,-0.7907,-0.792,-0.7954,-0.7952,-0.7966,-0.804,-0.8071,-0.8124,-0.8145,-0.8144,-0.8235,-0.8222,-0.8202,-0.8163,-0.8241,-0.8275,-0.8289,-0.8111,-0.811,-0.8109,-0.8108,0,0,-0.7782,-0.7834,-0.7851,-0.7874,-0.7917,-0.7959,-0.8018,-0.8069,-0.8099,-0.8137,-0.8187,-0.8259,-0.8241,-0.8271,-0.8273,-0.8315,-0.8396,-0.829,-0.8291,-0.8309,-0.8498,-0.8514,-0.8529,-0.8388,-0.8391,-0.8393,-0.8495,0,-0.7879,-0.7982,-0.7987,-0.8081,-0.8131,-0.8117,-0.8169,-0.8202,-0.8216,-0.8261,-0.8277,-0.8328,-0.83,-0.8318,-0.8358,-0.8377,-0.8434,-0.837,-0.8436,-0.8439,-0.8427,-0.8547,-0.8564,-0.8658,-0.8508,-0.8511,-0.8512,0,-0.8006,-0.8047,-0.8146,-0.8183,-0.8204,-0.825,-0.8298,-0.834,-0.8377,-0.8385,-0.8418,-0.8414,-0.8476,-0.8434,-0.8519,-0.8476,-0.8503,-0.8517,-0.852,-0.8528,-0.8481,-0.8558,-0.8689,-0.8703,-0.8533,-0.8531,-0.853,0,-0.8083,-0.8163,-0.8233,-0.8253,-0.8297,-0.833,-0.835,-0.8385,-0.8415,-0.8457,-0.8477,-0.8526,-0.8553,-0.8591,-0.8601,-0.857,-0.8687,-0.8646,-0.8696,-0.8695,-0.8721,-0.872,-0.8859,-0.8738,-0.8738,-0.8737,-0.8737,0,-0.8191,-0.8253,-0.8268,-0.8311,-0.838,-0.8384,-0.8452,-0.847,-0.8501,-0.8548,-0.8539,-0.8584,-0.8593,-0.864,-0.8648,-0.8718,-0.873,-0.8739,-0.874,-0.874,-0.8739,-0.8759,-0.8753,-0.8741,-0.874,-0.874,-0.8739,0,-0.8289,-0.8302,-0.8377,-0.8412,-0.8422,-0.8472,-0.8502,-0.8544,-0.8557,-0.8617,-0.8631,-0.8652,-0.8707,-0.872,-0.8785,-0.879,-0.8873,-0.8868,-0.8861,-0.8861,-0.891,-0.8905,-0.9067,-0.9089,-0.8953,-0.8954,-0.8955,0,-0.8358,-0.8405,-0.8445,-0.8475,-0.8496,-0.8546,-0.8577,-0.8583,-0.8616,-0.8662,-0.8698,-0.8751,-0.8794,-0.8882,-0.8904,-0.8954,-0.895,-0.9004,-0.8958,-0.8956,-0.8952,-0.895,-0.8955,-0.9013,-0.9014,-0.9015,-0.9016,0,-0.8478,-0.8482,-0.8527,-0.8574,-0.8611,-0.8649,-0.8684,-0.871,-0.8721,-0.8759,-0.8814,-0.8847,-0.8914,-0.8967,-0.9017,-0.9039,-0.903,-0.903,-0.9045,-0.9045,-0.9039,-0.9044,-0.8885,-0.9027,-0.9026,-0.9025,-0.9024,-0.9024,-0.8564,-0.8605,-0.864,-0.869,-0.8718,-0.8751,-0.8792,-0.881,-0.8856,-0.891,-0.8911,-0.8971,-0.9008,-0.9074,-0.9099,-0.9147,-0.913,-0.9151,-0.9156,-0.9162,-0.9166,-0.9031,-0.9156,-0.9155,-0.9155,-0.9155,-0.9155,0,-0.8685,-0.8706,-0.8752,-0.8803,-0.8842,-0.8829,-0.8868,-0.8903,-0.8956,-0.899,-0.9032,-0.9096,-0.9147,-0.9173,-0.9225,-0.9258,-0.9255,-0.9272,-0.927,-0.9275,-0.9177,-0.916,-0.9273,-0.9273,-0.9273,-0.9273,-0.9273,-0.9273,-0.8753,-0.8822,-0.883,-0.8913,-0.8934,-0.8992,-0.9016,-0.9047,-0.9074,-0.9146,-0.9188,-0.9204,-0.9235,-0.9289,-0.9336,-0.9342,-0.9362,-0.9381,-0.9385,-0.9294,-0.9282,-0.927,-0.9254,-0.9385,-0.9385,-0.9478,-0.9479,-0.948]},{"header":{"parameterUnit":"m.s-1","parameterCategory":1,"la1":30.2991,"la2":30.254,"lo1":-89.0895,"lo2":-89.0444,"dy":0.0017,"dx":0.0017,"nx":28,"ny":28,"refTime":"2025-09-17T09:00:00:Z","depth":0,"parameterNumber":3,"parameterNumberName":"V-component_of_WINDS"},"data":[0,0,0,0,0,0,0,0,0,0,0,0,0,0,0,0,0,0,0,0,0,0,0,0,0,0,0,0,0,0,0,0,0,0,0,0,0,0,0,0,0,0,0,0,0,0,0,0,0,0,0,0,0,0,0,0,0,0,-1.3183,-1.3183,0,-1.3176,-1.3176,-1.3176,-1.3137,-1.3136,-1.3135,-1.3134,-1.3128,-1.3128,-1.3129,0,0,0,0,0,0,0,0,0,0,0,0,0,-1.3162,-1.3163,-1.3183,-1.3183,-1.3183,-1.3176,-1.3176,-1.3176,-1.3137,-1.3136,-1.3135,-1.3134,-1.3127,-1.3128,-1.3129,0,0,0,0,0,0,0,0,0,0,0,0,0,-1.3165,-1.3163,-1.3183,-1.3163,-1.3161,-1.3176,-1.3176,-1.3176,-1.3138,-1.3136,-1.3135,-1.3133,-1.3127,-1.3128,-1.3129,-1.3163,0,0,-1.3132,-1.3133,0,0,0,0,0,0,0,0,-1.3165,-1.3166,-1.3166,-1.3164,-1.3162,-1.3156,-1.3166,-1.3172,-1.3138,-1.3146,-1.3134,-1.3133,-1.3138,-1.3138,-1.314,-1.3163,-1.3163,-1.3132,-1.3133,-1.3133,-1.3134,0,0,0,0,0,0,0,-1.3165,-1.3166,-1.318,-1.3166,-1.3163,-1.3154,-1.3153,-1.3167,-1.315,-1.3145,-1.3143,-1.3142,-1.3137,-1.3139,-1.314,-1.3163,-1.3132,-1.3133,-1.3134,-1.3134,-1.3214,-1.3216,0,0,0,0,0,0,-1.3167,-1.3166,-1.318,-1.318,-1.316,-1.3155,-1.3154,-1.3159,-1.315,-1.3147,-1.3144,-1.3141,-1.3138,-1.3138,-1.3139,-1.318,-1.3133,-1.3134,-1.3135,-1.3213,-1.3215,-1.3216,0,0,0,0,0,0,-1.3167,-1.3169,-1.318,-1.3172,-1.3173,-1.3157,-1.3163,-1.316,-1.3162,-1.3148,-1.3145,-1.3149,-1.3137,-1.3138,-1.3158,-1.3179,-1.3135,-1.3136,-1.3211,-1.3214,-1.3216,-1.3261,0,0,0,0,0,0,-1.3167,-1.3169,-1.3182,-1.3173,-1.3173,-1.3199,-1.3165,-1.3161,-1.3164,-1.316,-1.3153,-1.315,-1.3136,-1.3157,-1.3159,-1.3179,-1.3136,-1.3209,-1.3212,-1.3215,-1.3257,-1.3264,-1.327,0,0,0,0,0,-1.3166,-1.3195,-1.3183,-1.3185,-1.3189,-1.3201,-1.3201,-1.3184,-1.3166,-1.3179,-1.317,-1.315,-1.3176,-1.3159,-1.3161,-1.3182,-1.3208,-1.3211,-1.3215,-1.3254,-1.3263,-1.327,0,0,0,0,0,0,-1.3207,-1.3193,-1.318,-1.3206,-1.3205,-1.3194,-1.321,-1.3193,-1.3197,-1.3194,-1.3172,-1.3171,-1.3195,-1.319,-1.3172,-1.3216,-1.3189,-1.3193,-1.3218,-1.3226,-1.3232,-1.3233,-1.3137,0,0,0,0,0,-1.3219,-1.3229,-1.3217,-1.3241,-1.3241,-1.3226,-1.323,-1.3217,-1.3215,-1.3214,-1.3207,-1.3206,-1.3214,-1.3219,-1.3225,-1.3256,-1.3254,-1.3272,-1.3278,-1.3283,-1.3288,-1.3305,-1.3312,-1.3228,-1.3228,-1.3228,0,0,-1.3244,-1.3237,-1.3245,-1.3249,-1.3247,-1.3258,-1.3226,-1.3239,-1.3248,-1.3216,-1.3235,-1.323,-1.3227,-1.3253,-1.3264,-1.325,-1.331,-1.3288,-1.3292,-1.3293,-1.3309,-1.3317,-1.3324,-1.323,-1.323,-1.3229,0,0,-1.3295,-1.3291,-1.3312,-1.331,-1.3307,-1.3296,-1.3301,-1.3293,-1.3289,-1.3307,-1.3284,-1.3294,-1.3308,-1.3307,-1.3308,-1.336,-1.3343,-1.3363,-1.3397,-1.3414,-1.342,-1.3426,-1.3446,-1.3453,-1.3367,-1.3367,-1.3367,0,-1.3327,-1.3343,-1.3324,-1.334,-1.3343,-1.3315,-1.3336,-1.3335,-1.3334,-1.3336,-1.3321,-1.3338,-1.3334,-1.336,-1.3373,-1.3374,-1.338,-1.3364,-1.3421,-1.3427,-1.3432,-1.3451,-1.3458,-1.3369,-1.3369,-1.3369,-1.3369,0,-1.3383,-1.3395,-1.3412,-1.3412,-1.3417,-1.3435,-1.3419,-1.3425,-1.3412,-1.3403,-1.3423,-1.3417,-1.3423,-1.3427,-1.3414,-1.3452,-1.3444,-1.3425,-1.3397,-1.3443,-1.346,-1.3467,-1.3373,-1.3372,-1.3371,-1.3371,0,0,-1.3461,-1.345,-1.3457,-1.3457,-1.3452,-1.3461,-1.3478,-1.3483,-1.349,-1.349,-1.3504,-1.3516,-1.3499,-1.3501,-1.3487,-1.3502,-1.3545,-1.3481,-1.3481,-1.3495,-1.3588,-1.3603,-1.3612,-1.3533,-1.3534,-1.3535,-1.3588,0,-1.3511,-1.354,-1.3524,-1.3555,-1.3566,-1.354,-1.3555,-1.3553,-1.3546,-1.3554,-1.3546,-1.3556,-1.3531,-1.3532,-1.3545,-1.3537,-1.3564,-1.3533,-1.3547,-1.3548,-1.355,-1.362,-1.3636,-1.3687,-1.3595,-1.3596,-1.3597,0,-1.3575,-1.3578,-1.3611,-1.3604,-1.3608,-1.3622,-1.3626,-1.3634,-1.3632,-1.3625,-1.3628,-1.3611,-1.3627,-1.3599,-1.3622,-1.3602,-1.3606,-1.3603,-1.3605,-1.3607,-1.3576,-1.3625,-1.3702,-1.3711,-1.3607,-1.3606,-1.3605,0,-1.363,-1.3643,-1.3664,-1.3665,-1.3657,-1.3668,-1.3665,-1.3661,-1.3666,-1.3669,-1.3672,-1.3677,-1.368,-1.3684,-1.367,-1.365,-1.3695,-1.3666,-1.3691,-1.3692,-1.3703,-1.3702,-1.3783,-1.3703,-1.3703,-1.3703,-1.3703,0,-1.3689,-1.3711,-1.3689,-1.3703,-1.3726,-1.3706,-1.373,-1.3724,-1.3722,-1.3734,-1.3711,-1.3722,-1.3701,-1.3711,-1.3699,-1.3721,-1.3722,-1.3718,-1.3715,-1.3721,-1.3722,-1.3725,-1.3721,-1.3705,-1.3705,-1.3704,-1.3704,0,-1.3755,-1.3742,-1.3764,-1.3755,-1.3753,-1.3771,-1.3763,-1.3775,-1.3766,-1.3782,-1.3784,-1.377,-1.378,-1.3765,-1.3774,-1.3766,-1.3796,-1.3787,-1.3797,-1.3795,-1.3822,-1.382,-1.3908,-1.392,-1.3832,-1.3832,-1.3833,0,-1.3795,-1.3811,-1.3804,-1.381,-1.3809,-1.382,-1.3824,-1.3806,-1.3812,-1.3811,-1.3823,-1.3832,-1.3838,-1.3856,-1.3846,-1.3853,-1.3845,-1.3875,-1.3846,-1.3851,-1.3847,-1.3847,-1.3849,-1.3882,-1.3883,-1.3883,-1.3884,0,-1.3867,-1.386,-1.3867,-1.3873,-1.3879,-1.3883,-1.3884,-1.3891,-1.3872,-1.3879,-1.389,-1.3895,-1.3904,-1.3913,-1.3917,-1.3914,-1.3897,-1.3893,-1.39,-1.3907,-1.3913,-1.3912,-1.3815,-1.3892,-1.3891,-1.389,-1.389,-1.389,-1.3922,-1.3935,-1.3933,-1.3943,-1.3942,-1.3944,-1.3956,-1.3948,-1.3957,-1.3963,-1.3951,-1.3965,-1.3963,-1.3967,-1.3966,-1.3977,-1.3963,-1.3972,-1.3975,-1.3978,-1.3983,-1.391,-1.3977,-1.3977,-1.3977,-1.3976,-1.3976,0,-1.3994,-1.3991,-1.4,-1.4004,-1.4012,-1.3994,-1.3995,-1.4003,-1.4015,-1.4015,-1.4021,-1.4034,-1.4042,-1.4034,-1.4041,-1.4051,-1.4043,-1.4054,-1.4054,-1.4054,-1.3993,-1.3988,-1.406,-1.406,-1.406,-1.406,-1.406,-1.406,-1.4033,-1.4055,-1.4048,-1.4069,-1.4066,-1.408,-1.4082,-1.4084,-1.4084,-1.4099,-1.4107,-1.4101,-1.4097,-1.4104,-1.4112,-1.4109,-1.4113,-1.4127,-1.4121,-1.4066,-1.4058,-1.405,-1.4045,-1.4128,-1.4128,-1.4181,-1.4181,-1.4182]}]]